Flag for Iran Weather past 2 weeks in Bandar-Abbas, Iran

Now
79 °F

Passing clouds.


Feels Like: 81 °F
Forecast: 69 / 82 °F
Wind: 7 mph from North

Location: Bandarabbass

Current Time: Apr 2, 2015 at 5:03:53 AM

Latest Report: Apr 2, 2015 at 4:30 AM


Visibility: 2 mi

Pressure: 29.56 "Hg

Humidity: 65%

Dew point: 66 °F

Location of Bandar-AbbasLocation

Historic Weather in Bandar-Abbas — Graph

°F

Bandar-Abbas temperature yesterday

Maximum temperature yesterday: 88 °F (at 11:30 AM)
Minimum temperature yesterday: 72 °F (at 6:30 AM)
Average temperature yesterday: 80 °F

Past Weeks' High & Low Weather Summary

 TemperatureHumidityPressure
High104 °F (Mar 21, 11:30 AM)100% (Mar 24, 4:20 AM)30.07 "Hg (Mar 24, 4:20 AM)
Low64 °F (Mar 24, 6:30 AM)14% (Mar 21, 11:30 AM)29.59 "Hg (Apr 2, 2:30 AM)
Average78 °F64%29.90 "Hg
* Reported Mar 18 2:30 AM — Apr 2 3:30 AM, Bandar-Abbas, Weather by CustomWeather, © 2015

Note: Actual official high and low records may vary slightly from our data, if they occured in-between our weather recording intervals... More about our weather records

Advertising

Bandar-Abbas weather history for previous 24 hours

 ConditionsComfort  
Time TempWeatherWind HumidityBarometerVisibility
3:30 AM
Thu, Apr 2
79 °FPassing clouds.7 mph65%29.59 "Hg2 mi
2:30 AM79 °FPassing clouds.7 mph70%29.59 "Hg2 mi
1:30 AM79 °FHaze.5 mph65%29.62 "Hg2 mi
12:30 AM79 °FHaze.5 mph70%29.62 "Hg2 mi
12:00 AM81 °FHaze.No wind70%29.65 "Hg2 mi
11:30 PM
Wed, Apr 1
81 °FHaze.No wind70%29.65 "Hg2 mi
10:55 PM81 °FHaze.No wind70%29.65 "Hg2 mi
10:30 PM81 °FHaze.No wind70%29.65 "Hg2 mi
10:00 PM81 °FHaze.5 mph70%29.65 "Hg2 mi
9:20 PM81 °FHaze.5 mph70%29.65 "Hg2 mi
9:00 PM79 °FHaze.No wind74%29.62 "Hg2 mi
8:30 PM81 °FScattered clouds.5 mph70%29.62 "Hg2 mi
7:30 PM81 °FScattered clouds.9 mph70%29.65 "Hg2 mi
7:00 PM82 °FScattered clouds.14 mph66%29.65 "Hg2 mi
6:30 PM82 °FScattered clouds.12 mph66%29.65 "Hg2 mi
6:00 PM86 °FScattered clouds.12 mph59%29.62 "Hg2 mi
5:30 PM86 °FScattered clouds.9 mph55%29.62 "Hg2 mi
5:00 PM88 °FScattered clouds.12 mph52%29.65 "Hg2 mi
4:30 PM86 °FHaze.12 mph55%29.65 "Hg2 mi
4:00 PM88 °FHaze.9 mph52%29.65 "Hg3 mi
3:30 PM86 °FHaze.12 mph52%29.65 "Hg3 mi
3:00 PM88 °FHaze.14 mph46%29.68 "Hg3 mi
2:30 PM86 °FScattered clouds.14 mph49%29.68 "Hg3 mi
2:00 PM84 °FScattered clouds.12 mph51%29.71 "Hg3 mi
1:30 PM86 °FPassing clouds.12 mph52%29.71 "Hg4 mi
1:00 PM88 °FSunny.9 mph52%29.74 "Hg4 mi
12:30 PM88 °FSunny.9 mph52%29.74 "Hg4 mi
12:00 PM88 °FClear.5 mph49%29.74 "Hg4 mi
11:30 AM88 °FClear.5 mph49%29.74 "Hg4 mi
11:00 AM79 °FClear.7 mph79%29.74 "Hg4 mi
10:00 AM81 °FClear.7 mph70%29.74 "Hg4 mi
9:30 AM81 °FClear.7 mph70%29.74 "Hg4 mi
9:00 AM77 °FClear.7 mph69%29.74 "Hg4 mi
8:30 AM77 °FClear.7 mph69%29.74 "Hg4 mi
8:00 AM72 °FClear.5 mph78%29.71 "Hg4 mi
7:30 AM72 °FClear.5 mph78%29.71 "Hg4 mi
7:00 AM72 °FClear.5 mph78%29.71 "Hg4 mi
6:30 AM72 °FClear.7 mph78%29.71 "Hg4 mi
5:30 AM73 °FClear.7 mph74%29.68 "Hg4 mi
Weather by CustomWeather, © 2015

See weather overviewHow to use our weather pages